Location: Suburban Lights Observatory
(43.1572°N, 89.2764°W)
Time: 21:58:55
(UTC-05:00)

Daily predictions for brighter satellites

Satellite Brightness Start Highest point End
(mag) Time Altitude Azimuth Time Altitude Azimuth Time Altitude Azimuth
Meteor 2-10 Rocket 4.0 20:51:19 10° N 20:57:06 59° ENE 21:02:44 10° SSE
Cosmos 2181 Rocket 4.3 20:51:28 10° N 20:57:56 78° W 21:04:18 10° S
Cosmos 1892 3.0 20:56:04 10° SSE 20:59:43 45° E 21:03:25 10° NNE
H-2A R/B 3.8 20:56:20 10° S 20:59:53 44° W 21:03:29 10° NNW
Envisat 3.4 20:55:34 10° SE 21:00:26 49° ENE 21:05:20 10° N
H-2A R/B 4.2 20:59:08 10° ENE 21:00:41 11° NE 21:02:14 10° NE
USA 186 3.2 20:58:32 10° SSW 21:01:21 37° W 21:04:22 10° NNW
Cosmos 1733 Rocket 3.5 20:59:51 10° SSE 21:04:01 43° E 21:08:12 10° NNE
ERBS 2.7 21:09:55 10° NW 21:13:22 58° NE 21:16:36 11° ESE
NOSS 2-2 (E) 3.7 21:12:56 10° SSW 21:16:58 53° ESE 21:21:41 10° NE
Cosmos 407 Rocket 4.2 21:12:09 10° N 21:17:08 41° ENE 21:21:52 11° SE
Cosmos 1238 Rocket 4.1 21:18:10 10° NE 21:20:15 16° ENE 21:21:59 12° ESE
Cosmos 2074 Rocket 4.0 21:16:40 10° S 21:22:57 83° E 21:29:16 10° N
Nimbus 7 Rocket 4.5 21:17:11 10° NNE 21:23:02 59° ESE 21:28:55 10° S
SPOT 5 3.2 21:19:43 10° SSE 21:24:50 61° ENE 21:30:08 10° N
COSMOS 2406 3.3 21:19:35 10° NNW 21:25:23 81° ENE 21:30:59 11° SSE
Cosmos 1190 Rocket 4.1 21:22:40 10° NNW 21:27:50 62° ENE 21:32:30 13° SSE
Cosmos 909 Rocket 4.3 21:22:29 10° SSW 21:28:57 78° ESE 21:36:47 10° NE
H-2A R/B 2.1 21:24:49 10° SSE 21:29:11 88° WSW 21:33:28 10° NNW
ERS-1 Rocket 3.5 21:24:20 10° S 21:29:17 61° WSW 21:34:18 10° NNW
Cosmos 1356 Rocket 3.6 21:26:13 10° SSW 21:30:25 78° W 21:34:43 10° N
Meteor 1-10 Rocket 4.3 21:24:52 10° N 21:30:47 83° E 21:36:32 10° S
Cosmos 1610 Rocket 4.5 21:25:16 10° S 21:31:19 66° E 21:37:29 10° NNE
PSLV R/B 3.5 21:29:27 15° SE 21:31:35 43° ENE 21:34:26 10° N
MetOp-B 4.3 21:28:34 11° SSE 21:33:39 60° ENE 21:38:55 10° N
Nadezhda 3 Rocket 4.3 21:29:56 10° N 21:36:09 54° ENE 21:41:46 13° SSE
Cosmos 1862 4.1 21:33:23 13° SSE 21:36:31 34° E 21:40:13 10° NNE
Terra 3.6 21:37:59 11° E 21:40:47 18° ENE 21:43:56 10° NNE
ATLAS 5 CENTAUR R/B 2.5 21:35:26 10° NW 21:41:27 78° WSW 21:46:55 15° SSE
ARGOS 3.7 21:38:33 15° SE 21:42:40 44° ENE 21:47:44 10° N
PSLV R/B 3.9 21:41:31 10° W 21:44:50 43° SSW 21:46:43 22° SE
Okean 2 Rocket 4.2 21:42:45 18° SE 21:45:00 26° E 21:48:42 10° NNE
Abrixas rocket 4.1 21:45:21 10° W 21:48:02 21° SW 21:49:51 14° S
Cosmos 2278 Rocket 3.0 21:43:31 12° SSE 21:48:04 31° ESE 21:53:01 10° NE
OPS 6432 4.1 21:44:49 10° SSW 21:48:15 85° SE 21:51:22 10° NE
Sich 1 Rocket 3.6 21:43:45 10° S 21:48:19 76° E 21:52:55 10° NNE
USA 234 3.7 21:44:20 10° ENE 21:50:17 36° SE 21:56:11 10° SSW
Cosmos 1844 3.9 21:44:49 10° S 21:50:20 50° ESE 21:55:56 10° NE
CZ-4B R/B 3.7 21:46:12 10° NNE 21:51:00 45° E 21:54:54 14° S
Cosmos 2341 Rocket 4.2 21:46:33 10° SSE 21:52:41 55° E 21:58:46 10° NNE
Cosmos 1825 2.4 21:54:31 20° SSE 21:56:53 49° E 22:00:35 10° NNE
Cosmos 676 Rocket 4.0 21:52:22 10° NNW 21:57:34 68° ENE 22:01:02 21° SSE
Cosmos 1674 Rocket 4.1 21:53:18 10° NNW 21:57:43 59° W 22:02:00 10° S
UNK 4.5 21:53:21 10° NNE 21:59:39 74° ESE 22:05:40 10° S
Cosmos 2056 Rocket 3.9 21:55:13 10° SSW 22:00:21 65° WNW 22:05:28 10° NNE
Cosmos 1844 Rocket 2.6 21:55:51 10° SSW 22:01:30 82° ESE 22:07:11 10° NNE
Meteor 1-27 Rocket 3.7 21:56:38 10° N 22:02:17 90° SE 22:06:42 16° S
Cosmos 1782 3.8 22:01:02 10° NNW 22:04:53 46° W 22:08:35 11° SSW
Cosmos 1184 Rocket 3.3 22:04:00 32° SE 22:05:00 42° E 22:08:11 10° NNE
Cosmos 1954 Rocket 4.1 22:00:07 10° NNW 22:05:17 62° ENE 22:08:21 24° SE
Cosmos 1174 3.4 22:02:27 10° NNW 22:05:46 58° NE 22:06:47 35° ESE
Cosmos 2082 Rocket 3.7 22:01:27 10° N 22:06:10 25° NE 22:09:37 15° E
Cosmos 1782 Rocket 3.6 22:07:23 21° SSE 22:10:11 60° E 22:14:36 10° NNE
COSMOS 2487 2.9 22:09:02 10° N 22:12:35 48° ENE 22:13:44 34° ESE
Atlas Centaur 2 3.5 22:11:51 10° SSW 22:12:00 10° SSW 22:12:00 10° SSW
SL-27 R/B 3.8 22:10:40 10° NW 22:14:05 37° WSW 22:16:20 18° SSW
NOSS 5 (C) 4.3 22:14:33 27° S 22:16:00 51° ESE 22:19:02 10° NE
YAOGAN 6 3.2 22:14:36 21° SSW 22:16:44 50° W 22:20:10 10° NNW
Cosmos 1408 2.5 22:15:26 23° S 22:17:40 89° WNW 22:21:21 10° N
CZ-4 R/B 3.8 22:14:09 10° NNE 22:18:50 62° ESE 22:21:34 24° S
IGS 5A 4.5 22:18:00 26° ESE 22:19:18 32° ENE 22:23:01 10° N
Cosmos 962 Rocket 4.4 22:14:40 11° S 22:20:34 88° E 22:26:50 10° N
COS B Rocket 4.3 22:16:53 10° N 22:21:00 46° W 22:24:24 12° SSW
SL-8 Rocket 4.2 22:17:09 22° SSE 22:21:04 54° E 22:27:08 10° NNE
SL-8 R/B 3.8 22:17:36 10° WSW 22:22:26 80° NNW 22:27:16 10° ENE
CENTAUR R/B 4.1 22:16:50 10° NW 22:24:00 39° WSW 22:30:41 13° S
Meteor 2-13 Rocket 4.4 22:19:38 19° S 22:24:11 70° E 22:30:20 10° NNE
Cosmos 1975 Rocket 2.9 22:21:05 10° N 22:25:26 87° E 22:27:24 32° S
Cosmos 2154 Rocket 4.3 22:19:15 10° SSW 22:25:27 68° W 22:31:40 10° N
Cosmos 1606 3.8 22:23:12 10° NNW 22:26:56 42° W 22:29:28 18° SSW
SL-08 RB Rocket 3.7 22:24:57 29° SSE 22:27:18 87° WSW 22:31:58 10° NNW
CARTOSAT-1 4.0 22:27:44 34° ESE 22:29:08 48° ENE 22:33:18 10° N
Okean 3 3.7 22:27:50 10° NNW 22:32:07 65° W 22:34:14 28° S
NOAA 11 4.3 22:28:50 23° S 22:32:18 72° WSW 22:37:50 10° NNW
Cosmos 1242 Rocket 2.4 22:33:02 10° N 22:36:41 85° E 22:37:28 54° SSE
USA 245 4.1 22:35:53 26° SW 22:36:56 34° W 22:40:12 10° NNW
Cosmos 1536 Rocket 4.3 22:33:54 10° N 22:38:06 38° ENE 22:39:02 34° ESE
H-2A R/B 2.1 22:36:42 33° SSE 22:39:11 73° ENE 22:44:32 10° N
Cosmos 1023 Rocket 4.4 22:38:36 10° NNW 22:43:44 90° ENE 22:45:42 39° SSE
Cosmos 1420 Rocket 3.9 22:46:17 27° S 22:49:11 79° ESE 22:54:26 10° NNE
Cosmos 2151 Rocket 3.7 22:49:00 48° SE 22:49:54 58° E 22:54:22 10° NNE
Cosmos 864 Rocket 4.4 22:51:03 35° SSE 22:53:42 65° E 22:59:47 10° NNE
Meteor 1-25 Rocket 4.5 22:56:05 39° SE 22:57:49 53° E 23:03:29 10° NNE
Cosmos 2366 rocket 3.9 22:56:09 33° S 22:59:08 77° E 23:05:28 10° N
BREEZE-M DEB (TANK) 3.8 22:59:03 10° WNW 23:01:03 26° N 23:04:37 10° ENE
Meteor 1-18 Rocket 4.3 22:56:15 10° N 23:02:09 70° ENE 23:04:09 42° SSE
Landsat 7 4.2 23:00:35 35° SSW 23:02:19 56° W 23:07:01 10° NNW
SAR-Lupe-2 3.6 23:02:28 68° ENE 23:02:28 68° ENE 23:05:58 10° N
Meteor 1-14 Rocket 4.2 23:00:06 31° SSW 23:03:00 85° W 23:08:40 10° N
Cosmos 2084 3.6 23:08:44 26° WSW 23:10:40 60° NW 23:14:28 10° NNE
ASTEX 1 3.4 23:06:49 10° NNE 23:11:43 60° E 23:12:25 54° SE
Spot 4 3.8 23:13:28 54° S 23:14:35 80° WSW 23:19:29 10° NNW
Cosmos 614 Rocket 3.9 23:10:10 10° NNW 23:15:16 73° WSW 23:16:24 52° S
Cosmos 1140 Rocket 4.1 23:11:12 10° NNW 23:16:06 46° WSW 23:17:37 36° SSW
Okean 1-7 Rocket 4.3 23:13:19 10° N 23:17:36 40° ENE 23:17:45 40° E
Terra 2.2 23:16:52 43° SSW 23:18:05 55° W 23:22:46 10° NNW
Cosmos 2218 Rocket 4.3 23:17:25 26° SSW 23:21:09 65° W 23:27:32 10° N
DMSP B5D2-2 4.3 23:16:37 10° N 23:21:49 68° WNW 23:24:02 35° SW
Okean 1 Rocket 3.5 23:24:31 47° E 23:24:31 47° E 23:28:35 10° NNE
BREEZE-M DEB (TANK) 3.6 23:19:07 10° WNW 23:26:18 35° SW 23:26:27 35° SW
Cosmos 1300 Rocket 3.6 23:29:22 63° E 23:29:22 63° E 23:33:37 10° NNE
Cosmos 2278 Rocket 3.4 23:26:41 10° SW 23:32:00 40° WNW 23:37:22 10° NNE
Cosmos 1025 Rocket 4.3 23:28:21 10° NNE 23:32:03 29° ENE 23:32:03 29° ENE
USA 234 3.5 23:27:03 10° NE 23:33:34 70° NW 23:40:01 10° WSW
Meteor 1-11 Rocket 4.3 23:33:06 42° ESE 23:33:42 43° E 23:39:10 10° NNE
Cosmos 1833 Rocket 2.6 23:32:20 10° NNW 23:37:59 86° WSW 23:39:00 62° SSE
Cosmos 1727 Rocket 4.3 23:32:00 10° NNW 23:38:03 59° W 23:40:11 39° SSW
Gbstr 26 Del rocket 4.4 23:33:57 10° NW 23:38:25 36° NNE 23:40:15 24° ENE
Cosmos 1812 3.1 23:36:35 10° NNW 23:40:03 60° WNW 23:40:03 60° WNW
Cosmos 1536 4.3 23:51:04 28° NE 23:51:04 28° NE 23:53:32 10° NNE
Cosmos 2082 Rocket 2.5 23:45:02 10° NNW 23:50:36 55° WSW 23:51:28 50° SW
Cosmos 1400 Rocket 4.0 23:56:12 35° NE 23:56:12 35° NE 23:59:02 10° NNE
